FW7499 Weather Reports


time (UTC)temp
F
wind
direction
speed
knots
gust
knots
rain 1hr
in
rain 24hr
in
rain mn
in
humidity
%
barometer
mb
20260509082503 49 321 0.0 0.0 0.00 0.00 0.00 65 1007.2
20260509082007 49 321 0.0 0.0 0.00 0.00 0.00 64 1007.3
20260509081512 50 321 0.0 0.0 0.00 0.00 0.00 64 1007.3
20260509081007 50 321 0.0 0.0 0.00 0.00 0.00 64 1007.3
20260509080507 50 321 0.0 0.0 0.00 0.00 0.00 63 1007.3
20260509080010 51 321 0.0 0.0 0.00 0.00 0.00 63 1007.2
20260509075506 51 321 0.0 0.0 0.00 0.00 0.00 62 1007.3
20260509075006 51 321 0.0 0.0 0.00 0.00 0.00 62 1007.4
20260509074508 51 321 0.0 0.0 0.00 0.00 0.00 61 1007.4
20260509074007 52 321 0.0 0.9 0.00 0.00 0.00 59 1007.4
20260509073503 52 321 0.0 0.9 0.00 0.00 0.00 60 1007.4
20260509073011 52 321 0.0 0.9 0.00 0.00 0.00 59 1007.4
20260509072507 52 321 0.0 0.0 0.00 0.00 0.00 60 1007.4
20260509072004 53 321 0.0 0.9 0.00 0.00 0.00 58 1007.4
20260509071506 53 321 0.0 0.9 0.00 0.00 0.00 59 1007.4
20260509071004 53 321 0.0 0.0 0.00 0.00 0.00 57 1007.4
20260509070507 53 321 0.0 0.0 0.00 0.00 0.00 57 1007.4
20260509070020 54 321 0.0 0.9 0.00 0.00 0.00 55 1007.5
20260509065511 54 321 0.0 0.9 0.00 0.00 0.00 54 1007.5
20260509065007 55 321 0.0 1.7 0.00 0.00 0.00 53 1007.5
20260509064528 55 321 0.0 1.7 0.00 0.00 0.00 53 1007.6
20260509064004 55 321 0.0 2.6 0.00 0.00 0.00 52 1007.6
20260509063506 56 321 0.0 2.6 0.00 0.00 0.00 51 1007.6
20260509063006 56 320 0.0 0.9 0.00 0.00 0.00 52 1007.7
20260509062508 56 320 0.0 0.9 0.00 0.00 0.00 52 1007.6
20260509062008 56 320 0.0 0.9 0.00 0.00 0.00 53 1007.7
20260509061532 56 320 0.0 0.9 0.00 0.00 0.00 53 1007.7
20260509061009 57 320 0.0 2.6 0.00 0.00 0.00 51 1007.6
20260509060507 57 320 0.0 2.6 0.00 0.00 0.00 50 1007.6
20260509060012 58 319 0.9 2.6 0.00 0.00 0.00 49 1007.7
20260509055507 58 309 0.9 2.6 0.00 0.00 0.00 49 1007.7
20260509055006 58 347 0.9 3.5 0.00 0.00 0.00 49 1007.7
20260509054511 59 348 0.9 3.5 0.00 0.00 0.00 49 1007.6
20260509054010 59 348 0.9 2.6 0.00 0.00 0.00 47 1007.6
20260509053507 59 340 1.7 3.5 0.00 0.00 0.00 46 1007.5
20260509053049 60 339 1.7 3.5 0.00 0.00 0.00 46 1007.5
20260509052507 60 330 1.7 4.3 0.00 0.00 0.00 46 1007.4
20260509052004 60 332 2.6 4.3 0.00 0.00 0.00 45 1007.4
20260509051527 60 322 2.6 4.3 0.00 0.00 0.00 45 1007.4
20260509051004 60 322 1.7 3.5 0.00 0.00 0.00 46 1007.4
20260509050507 59 292 0.9 2.6 0.00 0.00 0.00 46 1007.3
20260509050018 59 292 0.9 1.7 0.00 0.00 0.00 46 1007.3
20260509045505 59 292 0.9 1.7 0.00 0.00 0.00 47 1007.3
20260509045007 59 292 0.0 1.7 0.00 0.00 0.00 46 1007.2
20260509044524 59 292 0.9 1.7 0.00 0.00 0.00 46 1007.2
20260509044006 58 292 0.0 0.9 0.00 0.00 0.00 47 1007.2
20260509043509 58 292 0.0 0.9 0.00 0.00 0.00 50 1007.2
20260509043018 59 292 0.0 0.9 0.00 0.00 0.00 49 1007.2
20260509042512 59 292 0.0 0.9 0.00 0.00 0.00 50 1007.1
20260509042010 60 292 0.0 0.0 0.00 0.00 0.00 46 1007.2
20260509041517 60 292 0.0 0.0 0.00 0.00 0.00 45 1007.1
20260509041007 59 292 0.0 1.7 0.00 0.00 0.00 49 1007.1
20260509040511 59 292 0.0 1.7 0.00 0.00 0.00 48 1007.0
20260509040029 59 292 0.0 1.7 0.00 0.00 0.00 47 1007.0
20260509035502 59 292 0.0 1.7 0.00 0.00 0.00 48 1007.1
20260509035003 60 292 0.0 1.7 0.00 0.00 0.00 47 1007.1
20260509034506 60 291 0.0 0.0 0.00 0.00 0.00 46 1006.9
20260509034003 61 291 0.0 0.0 0.00 0.00 0.00 46 1006.9
20260509033506 62 291 0.0 0.0 0.00 0.00 0.00 40 1006.8
20260509033002 62 291 0.0 0.9 0.00 0.00 0.00 41 1006.8
20260509032503 62 291 0.0 0.9 0.00 0.00 0.00 45 1006.8
20260509032004 61 291 0.0 0.9 0.00 0.00 0.00 44 1006.8
20260509031505 61 292 0.0 0.9 0.00 0.00 0.00 47 1006.7
20260509031002 61 291 0.0 1.7 0.00 0.00 0.00 45 1006.7
20260509030509 61 290 0.0 1.7 0.00 0.00 0.00 47 1006.6
20260509030004 61 280 0.0 0.9 0.00 0.00 0.00 44 1006.5
20260509025503 62 280 0.0 0.9 0.00 0.00 0.00 41 1006.4
20260509025002 64 279 0.0 0.0 0.00 0.00 0.00 37 1006.3
20260509024504 64 279 0.0 0.0 0.00 0.00 0.00 36 1006.2
20260509024004 64 279 0.0 0.0 0.00 0.00 0.00 38 1006.2
20260509023504 64 279 0.0 0.0 0.00 0.00 0.00 35 1006.1
20260509023006 65 279 0.0 0.9 0.00 0.00 0.00 36 1006.0
20260509022505 66 279 0.0 0.9 0.00 0.00 0.00 35 1005.9
20260509022003 66 305 0.0 0.0 0.00 0.00 0.00 33 1005.9
20260509021508 67 305 0.0 0.0 0.00 0.00 0.00 33 1005.8
20260509021003 67 305 0.0 0.0 0.00 0.00 0.00 30 1005.7
20260509020504 67 305 0.0 0.0 0.00 0.00 0.00 30 1005.7
20260509020009 68 305 0.0 0.0 0.00 0.00 0.00 31 1005.6
20260509015504 68 305 0.0 0.9 0.00 0.00 0.00 32 1005.6
20260509015006 69 305 0.0 0.9 0.00 0.00 0.00 31 1005.6
20260509014508 69 305 0.0 0.9 0.00 0.00 0.00 31 1005.6
20260509014008 70 305 0.0 2.6 0.00 0.00 0.00 30 1005.6
20260509013502 70 305 0.9 3.5 0.00 0.00 0.00 29 1005.6
20260509013005 70 300 0.9 3.5 0.00 0.00 0.00 29 1005.5
20260509012502 71 296 0.9 2.6 0.00 0.00 0.00 29 1005.5
20260509012002 71 292 0.0 2.6 0.00 0.00 0.00 30 1005.5
20260509011509 71 337 0.0 2.6 0.00 0.00 0.00 30 1005.4
20260509011003 72 306 0.0 3.5 0.00 0.00 0.00 29 1005.4
20260509010503 72 297 0.9 4.3 0.00 0.00 0.00 30 1005.4
20260509010006 72 330 0.0 4.3 0.00 0.00 0.00 30 1005.3
20260509005505 72 306 1.7 3.5 0.00 0.00 0.00 31 1005.3
20260509005005 73 292 0.9 3.5 0.00 0.00 0.00 31 1005.3
20260509004501 73 326 0.9 6.1 0.00 0.00 0.00 32 1005.2
20260509004009 74 339 1.7 6.1 0.00 0.00 0.00 29 1005.2
20260509003507 74 302 1.7 7.0 0.00 0.00 0.00 30 1005.2
20260509003008 74 315 1.7 7.0 0.00 0.00 0.00 30 1005.2
20260509002505 74 329 3.5 7.0 0.00 0.00 0.00 31 1005.1
20260509002002 74 337 1.7 5.2 0.00 0.00 0.00 30 1005.0
20260509001510 73 296 0.9 3.5 0.00 0.00 0.00 35 1005.1
20260509001004 73 336 1.7 3.5 0.00 0.00 0.00 35 1005.1
20260509000509 72 346 0.0 2.6 0.00 0.00 0.00 38 1005.1
20260509000005 72 348 0.0 1.7 0.00 0.00 0.00 37 1005.2
20260508235502 72 348 0.0 2.6 0.00 0.00 0.00 39 1005.1
20260508235002 72 348 0.0 2.6 0.00 0.00 0.00 40 1005.2
20260508234506 71 349 0.0 2.6 0.00 0.00 0.00 43 1005.2
20260508234008 71 227 0.0 2.6 0.00 0.00 0.00 41 1005.2
20260508233505 71 315 0.0 1.7 0.00 0.00 0.00 41 1005.2
20260508233012 71 315 0.0 1.7 0.00 0.00 0.00 44 1005.3
20260508232504 72 315 0.0 4.3 0.00 0.00 0.00 38 1005.3
20260508232009 73 309 0.0 4.3 0.00 0.00 0.00 36 1005.4
20260508231510 73 338 0.0 2.6 0.00 0.00 0.00 34 1005.3
20260508231008 74 338 0.0 3.5 0.00 0.00 0.00 33 1005.3
20260508230502 74 320 1.7 3.5 0.00 0.00 0.00 32 1005.2
20260508230008 74 355 0.9 2.6 0.00 0.00 0.00 34 1005.2
20260508225512 75 336 0.0 3.5 0.00 0.00 0.00 32 1005.3
20260508225003 75 328 0.9 3.5 0.00 0.00 0.00 32 1005.3
20260508224512 75 319 0.9 8.7 0.00 0.00 0.00 34 1005.3
20260508224005 76 318 3.5 8.7 0.00 0.00 0.00 31 1005.4
20260508223505 76 298 1.7 6.1 0.00 0.00 0.00 33 1005.4
20260508223030 76 252 0.9 7.8 0.00 0.00 0.00 31 1005.4
20260508222507 75 244 1.7 7.8 0.00 0.00 0.00 30 1005.5
20260508222009 76 246 1.7 7.8 0.00 0.00 0.00 29 1005.5
20260508221507 77 234 1.7 6.1 0.00 0.00 0.00 31 1005.4
20260508221010 78 238 2.6 6.1 0.00 0.00 0.00 29 1005.5
20260508220506 77 132 0.0 7.0 0.00 0.00 0.00 27 1005.5
20260508220014 78 278 2.6 7.0 0.00 0.00 0.00 31 1005.6
20260508215503 78 87 0.9 7.0 0.00 0.00 0.00 30 1005.6
20260508215006 78 144 1.7 7.0 0.00 0.00 0.00 29 1005.7
20260508214516 78 257 0.0 4.3 0.00 0.00 0.00 27 1005.7
20260508214008 77 51 0.9 5.2 0.00 0.00 0.00 27 1005.7
20260508213505 79 253 1.7 5.2 0.00 0.00 0.00 29 1005.9
20260508213017 77 288 1.7 4.3 0.00 0.00 0.00 29 1005.9
20260508212506 77 137 0.9 6.1 0.00 0.00 0.00 27 1005.9
20260508212005 78 333 1.7 6.1 0.00 0.00 0.00 31 1005.9
20260508211513 76 167 0.0 6.1 0.00 0.00 0.00 28 1005.9
20260508211003 78 321 2.6 6.1 0.00 0.00 0.00 30 1006.0
20260508210508 77 347 1.7 6.1 0.00 0.00 0.00 36 1006.1
20260508210009 77 336 1.7 6.1 0.00 0.00 0.00 30 1006.1
20260508205502 75 340 0.9 7.8 0.00 0.00 0.00 32 1006.3
20260508205003 76 277 2.6 7.8 0.00 0.00 0.00 28 1006.3
20260508204508 77 278 0.0 9.6 0.00 0.00 0.00 35 1006.4
20260508204006 78 323 2.6 9.6 0.00 0.00 0.00 30 1006.5
20260508203503 77 313 0.0 7.0 0.00 0.00 0.00 34 1006.5
20260508203006 78 293 2.6 7.0 0.00 0.00 0.00 29 1006.6
20260508202503 77 324 2.6 7.0 0.00 0.00 0.00 26 1006.7
20260508202006 78 297 1.7 7.8 0.00 0.00 0.00 28 1006.7
20260508201505 78 275 0.9 7.8 0.00 0.00 0.00 28 1006.8
20260508201008 78 324 2.6 7.8 0.00 0.00 0.00 32 1006.9
20260508200504 76 331 0.9 4.3 0.00 0.00 0.00 31 1006.9
20260508200016 76 344 0.9 4.3 0.00 0.00 0.00 29 1007.2
20260508195508 75 206 0.9 4.3 0.00 0.00 0.00 29 1007.2
20260508195002 75 212 0.0 1.7 0.00 0.00 0.00 32 1007.2
20260508194518 74 182 0.0 3.5 0.00 0.00 0.00 30 1007.3
20260508194002 74 275 0.9 3.5 0.00 0.00 0.00 27 1007.3
20260508193506 75 207 0.0 6.1 0.00 0.00 0.00 31 1007.3
20260508193018 74 154 0.9 7.8 0.00 0.00 0.00 28 1007.3
20260508192503 75 196 0.9 7.8 0.00 0.00 0.00 30 1007.3
20260508192006 76 246 2.6 6.1 0.00 0.00 0.00 28 1007.5
20260508191516 76 133 0.9 5.2 0.00 0.00 0.00 31 1007.5
20260508191002 76 281 1.7 5.2 0.00 0.00 0.00 26 1007.6
20260508190505 75 88 0.0 4.3 0.00 0.00 0.00 32 1007.6
20260508190009 75 325 1.7 7.0 0.00 0.00 0.00 31 1007.7
20260508185506 75 292 2.6 7.0 0.00 0.00 0.00 27 1007.9
20260508185009 76 355 2.6 7.0 0.00 0.00 0.00 30 1007.9
20260508184510 75 273 0.9 5.2 0.00 0.00 0.00 31 1007.9
20260508184007 75 57 0.9 6.1 0.00 0.00 0.00 28 1008.0
20260508183511 75 74 1.7 6.1 0.00 0.00 0.00 29 1008.1
20260508183007 75 43 0.9 3.5 0.00 0.00 0.00 29 1008.1
20260508182508 75 274 0.9 5.2 0.00 0.00 0.00 27 1008.2
20260508182006 75 320 1.7 6.1 0.00 0.00 0.00 30 1008.2
20260508181523 73 154 0.0 6.1 0.00 0.00 0.00 29 1008.2
20260508181003 73 151 0.9 4.3 0.00 0.00 0.00 27 1008.4
20260508180507 73 355 0.9 3.5 0.00 0.00 0.00 28 1008.4
20260508180010 73 126 0.9 3.5 0.00 0.00 0.00 33 1008.4
20260508175506 73 95 0.9 6.1 0.00 0.00 0.00 31 1008.5
20260508175006 73 84 0.9 6.1 0.00 0.00 0.00 28 1008.5
20260508174515 73 45 0.0 1.7 0.00 0.00 0.00 36 1008.6
20260508174011 71 46 0.0 2.6 0.00 0.00 0.00 35 1008.7
20260508173508 71 88 0.9 2.6 0.00 0.00 0.00 31 1008.7
20260508173017 72 360 0.0 2.6 0.00 0.00 0.00 29 1008.7
20260508172505 71 51 0.9 4.3 0.00 0.00 0.00 33 1008.8
20260508172013 73 304 0.9 4.3 0.00 0.00 0.00 30 1008.9
20260508171514 71 61 0.0 2.6 0.00 0.00 0.00 39 1008.9
20260508171009 72 34 0.9 2.6 0.00 0.00 0.00 39 1008.9
20260508170506 71 24 0.0 2.6 0.00 0.00 0.00 35 1008.9
20260508170013 70 63 0.0 2.6 0.00 0.00 0.00 37 1009.0
20260508165504 69 63 0.0 2.6 0.00 0.00 0.00 39 1009.0
20260508165017 69 5 0.0 1.7 0.00 0.00 0.00 42 1008.9
20260508164516 69 5 0.0 1.7 0.00 0.00 0.00 39 1008.9
20260508164011 69 5 0.0 1.7 0.00 0.00 0.00 36 1008.9
20260508163506 69 338 0.0 3.5 0.00 0.00 0.00 38 1009.0
20260508163010 69 338 1.7 3.5 0.00 0.00 0.00 39 1009.0
20260508162506 68 111 0.9 3.5 0.00 0.00 0.00 37 1009.0
20260508162005 68 86 0.9 5.2 0.00 0.00 0.00 38 1008.9
20260508161523 69 86 0.9 5.2 0.00 0.00 0.00 42 1008.9
20260508161010 70 80 0.0 2.6 0.00 0.00 0.00 39 1008.9
20260508160507 69 222 0.0 3.5 0.00 0.00 0.00 42 1009.0
20260508160019 68 221 0.9 5.2 0.00 0.00 0.00 38 1009.0
20260508155507 68 182 0.0 5.2 0.00 0.00 0.00 40 1009.0
20260508155006 68 206 0.0 3.5 0.00 0.00 0.00 36 1009.0
20260508154518 68 327 0.0 3.5 0.00 0.00 0.00 41 1009.0
20260508154013 68 55 0.0 3.5 0.00 0.00 0.00 39 1009.0
20260508153505 67 105 0.0 3.5 0.00 0.00 0.00 41 1009.1
20260508153014 66 271 0.9 3.5 0.00 0.00 0.00 40 1009.2
20260508152507 65 161 0.0 3.5 0.00 0.00 0.00 45 1009.2
20260508152007 65 207 0.0 3.5 0.00 0.00 0.00 44 1009.2
20260508151518 65 109 0.0 3.5 0.00 0.00 0.00 46 1009.3
20260508151009 64 78 0.0 3.5 0.00 0.00 0.00 49 1009.2
20260508150510 65 260 0.9 3.5 0.00 0.00 0.00 46 1009.2
20260508150021 65 166 0.9 3.5 0.00 0.00 0.00 46 1009.3
20260508145507 65 71 0.9 2.6 0.00 0.00 0.00 48 1009.1
20260508145007 64 174 0.0 2.6 0.00 0.00 0.00 49 1009.1
20260508144514 64 84 0.0 3.5 0.00 0.00 0.00 47 1009.2
20260508144007 64 84 0.9 3.5 0.00 0.00 0.00 46 1009.3
20260508143507 62 145 0.0 2.6 0.00 0.00 0.00 52 1009.4
20260508143023 62 102 0.0 2.6 0.00 0.00 0.00 51 1009.4
20260508142506 62 105 0.0 1.7 0.00 0.00 0.00 54 1009.5
20260508142006 60 105 0.0 1.7 0.00 0.00 0.00 54 1009.5
20260508141516 60 105 0.0 1.7 0.00 0.00 0.00 58 1009.5
20260508141010 60 105 0.0 1.7 0.00 0.00 0.00 59 1009.5
20260508140508 59 171 0.0 0.0 0.00 0.00 0.00 63 1009.5
20260508140015 57 171 0.0 0.0 0.00 0.00 0.00 68 1009.5
20260508135511 56 171 0.0 0.0 0.00 0.00 0.00 65 1009.5
20260508135011 55 171 0.0 0.0 0.00 0.00 0.00 73 1009.5
20260508134524 54 171 0.0 0.0 0.00 0.00 0.00 74 1009.5
20260508134010 53 171 0.0 0.0 0.00 0.00 0.00 74 1009.6
20260508133507 52 171 0.0 0.0 0.00 0.00 0.00 76 1009.6
20260508133023 52 171 0.0 0.0 0.00 0.00 0.00 74 1009.6
20260508132506 52 171 0.0 0.0 0.00 0.00 0.00 74 1009.5
20260508132010 52 171 0.0 0.0 0.00 0.00 0.00 72 1009.6
20260508131520 52 171 0.0 0.0 0.00 0.00 0.00 71 1009.5
20260508131011 52 171 0.0 0.0 0.00 0.00 0.00 71 1009.4
20260508130512 52 171 0.0 0.0 0.00 0.00 0.00 68 1009.2
20260508130021 51 171 0.0 0.0 0.00 0.00 0.00 69 1009.2
20260508125512 51 171 0.0 0.0 0.00 0.00 0.00 69 1009.1
20260508125006 51 171 0.0 0.0 0.00 0.00 0.00 68 1009.0
20260508124516 51 171 0.0 0.0 0.00 0.00 0.00 69 1009.0
20260508124012 51 171 0.0 0.0 0.00 0.00 0.00 67 1009.0
20260508123509 51 171 0.0 0.0 0.00 0.00 0.00 68 1009.1
20260508123022 51 171 0.0 0.0 0.00 0.00 0.00 68 1009.1
20260508122510 51 172 0.0 0.0 0.00 0.00 0.00 67 1009.1
20260508122011 51 172 0.0 0.0 0.00 0.00 0.00 66 1009.1
20260508121519 51 172 0.0 0.0 0.00 0.00 0.00 67 1009.0
20260508121011 51 172 0.0 2.6 0.00 0.00 0.00 67 1009.0
20260508120503 51 172 0.9 2.6 0.00 0.00 0.00 66 1009.1
20260508120022 51 165 0.9 2.6 0.00 0.00 0.00 66 1009.1
20260508115508 51 181 0.9 2.6 0.00 0.00 0.00 63 1009.2
20260508115003 51 134 0.0 0.0 0.00 0.00 0.00 62 1009.1
20260508114508 50 133 0.0 0.0 0.00 0.00 0.00 64 1009.4
20260508114009 50 133 0.0 0.0 0.00 0.00 0.00 64 1009.4
20260508113507 50 134 0.0 0.0 0.00 0.00 0.00 64 1009.4
20260508113006 49 134 0.0 0.0 0.00 0.00 0.00 65 1009.2
20260508112507 50 134 0.0 0.0 0.00 0.00 0.00 65 1009.1
20260508112005 50 134 0.0 0.0 0.00 0.00 0.00 63 1009.1
20260508111508 50 134 0.0 0.0 0.00 0.00 0.00 61 1009.1
20260508111006 50 134 0.0 0.0 0.00 0.00 0.00 63 1009.2
20260508110504 50 134 0.0 0.0 0.00 0.00 0.00 62 1009.2
20260508110019 50 133 0.0 0.0 0.00 0.00 0.00 58 1009.1
20260508105503 49 133 0.0 0.0 0.00 0.00 0.00 59 1009.1
20260508105005 49 134 0.0 0.0 0.00 0.00 0.00 65 1009.2
20260508104520 49 134 0.0 0.0 0.00 0.00 0.00 65 1009.3
20260508104003 50 134 0.0 0.0 0.00 0.00 0.00 65 1009.5
20260508103503 50 134 0.0 0.0 0.00 0.00 0.00 61 1009.3
20260508103023 51 134 0.0 0.0 0.00 0.00 0.00 62 1009.2
20260508102505 51 134 0.0 0.0 0.00 0.00 0.00 60 1009.0
20260508102005 51 133 0.0 0.0 0.00 0.00 0.00 57 1009.0
20260508101504 50 133 0.0 0.0 0.00 0.00 0.00 57 1009.4
20260508101006 49 134 0.0 0.0 0.00 0.00 0.00 62 1009.7
20260508100505 50 134 0.0 0.0 0.00 0.00 0.00 62 1009.8
20260508100013 49 134 0.0 0.0 0.00 0.00 0.00 66 1009.9
20260508095506 50 133 0.0 1.7 0.00 0.00 0.00 65 1009.9
20260508095007 51 134 0.0 1.7 0.00 0.00 0.00 60 1009.6
20260508094507 52 134 0.0 0.9 0.00 0.00 0.00 57 1009.5
20260508094007 52 134 0.0 0.9 0.00 0.00 0.00 52 1009.5
20260508093507 51 134 0.0 0.0 0.00 0.00 0.00 55 1009.6
20260508093003 51 134 0.0 0.0 0.00 0.00 0.00 58 1009.6
20260508092506 51 134 0.0 0.0 0.00 0.00 0.00 61 1009.7
20260508092007 52 134 0.0 0.0 0.00 0.00 0.00 61 1009.7
20260508091523 52 134 0.0 0.0 0.00 0.00 0.00 62 1009.7
20260508091004 52 134 0.0 0.0 0.00 0.00 0.00 59 1009.6
20260508090506 52 134 0.0 0.0 0.00 0.00 0.00 59 1009.7
20260508090008 52 134 0.0 0.0 0.00 0.00 0.00 60 1009.7
20260508085507 52 134 0.0 0.9 0.00 0.00 0.00 61 1009.8
20260508085006 52 134 0.0 0.9 0.00 0.00 0.00 62 1009.6
20260508084511 54 134 0.0 1.7 0.00 0.00 0.00 54 1009.7
20260508084006 54 134 0.0 1.7 0.00 0.00 0.00 54 1009.9
20260508083505 54 134 0.9 1.7 0.00 0.00 0.00 54 1009.8
20260508083018 55 132 0.9 1.7 0.00 0.00 0.00 56 1009.6